Location: ??
(35.5052°N, 139.7262°E)
Time: 01:05:53
(UTC+00:00)

CARTOSAT-1 - Pass Details

Date: 20 June 2021
Orbit: 616 x 618 km, 97.8° (Epoch: 26 July)

Event Time Altitude Azimuth Distance (km) Brightness Sun altitude
Exits shadow 12:34:42 44° 232° (SW) 851 4.1 -23.7°
Maximum altitude 12:35:20 48° 261° (W) 807 4.2 -23.8°
Drops below altitude 10° 12:39:31 10° 336° (NNW) 1,988 7.2 -24.2°
Sets 12:41:47 0° 342° (NNW) 2,898 8.3 -24.5°
